Location: Unspecified
(0.0000°N, 0.0000°E)
Time: 12:32:24
(UTC+00:00)

STARLINK-36491 - Pass Details

Date: 22 February 2026
Orbit: 482 x 484 km, 43.0° (Epoch: 8 March)

Event Time Altitude Azimuth Distance (km) Brightness Sun altitude
Exits shadow 04:49:56 25° 0° (N) 1,012 ? -20.6°
Maximum altitude 04:51:25 35° 45° (NE) 796 ? -20.2°
Drops below altitude 10° 04:54:56 10° 113° (ESE) 1,669 ? -19.3°
Sets 04:57:14 0° 122° (ESE) 2,550 ? -18.8°
